Regional Weather Roundup
Issued by NWS

Home | Current Version | Previous Version | Graphics & Text | Print | Product List | Glossary On
Versions: 1 2 3 4 5 6 7 8 9 10 11 12 13 14 15 16 17 18 19 20 21 22 23 24 25 26 27 28 29 30 31 32 33 34 35 36 37 38 39 40 41 42 43 44 45 46 47 48 49 50
000
ASUS45 KPSR 311110
RWRAZ

ARIZONA HOURLY REGIONAL WEATHER ROUNDUP
NATIONAL WEATHER SERVICE PHOENIX AZ
400 AM MST TUE MAY 31 2016

NOTE: FAIR INDICATES FEW OR NO CLOUDS BELOW 12,000 FEET WITH NO
SIGNIFICANT WEATHER AND/OR OBSTRUCTIONS TO VISIBILITY.

AZZ001>003-036-311200-
NORTHWEST ARIZONA

CITY           SKY/WX    TMP DP  RH WIND       PRES   REMARKS
KINGMAN        PTCLDY    63  27  25 CALM      29.90R
$$

AZZ004>008-015-016-018-311200-
NORTH CENTRAL ARIZONA

CITY           SKY/WX    TMP DP  RH WIND       PRES   REMARKS
GRAND CANYON   CLEAR     35  24  64 CALM      30.10S
WILLIAMS       PTCLDY    39  27  60 S9        30.16S WCI  33
PRESCOTT       CLEAR     49  25  39 S6        30.00S
FLAGSTAFF      PTCLDY    34  25  69 CALM      30.11S
PAYSON         CLEAR     55  12  18 CALM      30.02S
PAGE           CLEAR     62  32  32 CALM      29.95S
$$

AZZ009>014-017-311200-
NORTHEAST ARIZONA

CITY           SKY/WX    TMP DP  RH WIND       PRES   REMARKS
WINSLOW        PTCLDY    52  20  28 CALM      29.99S
SAINT JOHNS    MOCLDY    51  23  33 S8        30.03S
WINDOW ROCK    PTCLDY    44  24  45 CALM      30.08S
SHOW LOW       MOCLDY    45  12  26 CALM      30.08S
$$

AZZ023-311200-
GREATER PHOENIX AREA

CITY           SKY/WX    TMP DP  RH WIND       PRES   REMARKS
PHOENIX        CLEAR     71  31  22 E5        29.75S
BUCKEYE        CLEAR     68  28  22 E6        29.78R
LUKE AFB       CLEAR     65  28  24 NW5       29.76R
DEER VALLEY    CLEAR     70  16  12 NE10      29.77F
SCOTTSDALE     CLEAR     67  28  23 CALM      29.79S
MESA-GATEWAY   CLEAR     63  27  25 E8        29.79R
$$

AZZ027-028-311200-
SOUTHWEST MARICOPA COUNTY AND PINAL COUNTY

CITY           SKY/WX    TMP DP  RH WIND       PRES   REMARKS
CASA GRANDE    CLEAR     61  19  20 CALM      29.80S
GILA BEND      FAIR      70  23  17 SE9       29.75R
$$

AZZ503-504-507>509-311200-
SOUTHEAST ARIZONA

CITY           SKY/WX    TMP DP  RH WIND       PRES   REMARKS
TUCSON         CLEAR     63  22  20 SE8       29.88R
DAVIS-MONTHAN  CLEAR     62  18  18 S5        29.86S
NOGALES        CLEAR     52  20  28 NE3       29.93S
SIERRA VISTA   CLEAR     56  22  26 SW1       29.97S
DOUGLAS        CLEAR     57  28  33 E6        29.96R
SAFFORD        CLEAR     60  18  19 CALM      29.87R
$$

AZZ020-021-025-026-031-311200-
SOUTHWEST ARIZONA

CITY           SKY/WX    TMP DP  RH WIND       PRES   REMARKS
YUMA           CLEAR     76  38  25 SE6       29.71S
$$

CAZ031-033-041-043-047-048-061-311200-
SOUTHERN CALIFORNIA

CITY           SKY/WX    TMP DP  RH WIND       PRES   REMARKS
DOWNTOWN L.A.  CLOUDY    60  56  86 CALM      29.87F
L.A. AIRPORT   CLOUDY    59  55  88 NW3       29.87F
SAN DIEGO      CLOUDY    64  56  75 CALM      29.89S
BURBANK        CLOUDY    56  55  97 SE5       29.87S
ONTARIO        PTCLDY    57  53  86 SW3       29.87F FOG
RIVERSIDE      CLEAR     59  54  83 CALM      29.88S
PALM SPRINGS   CLEAR     75  53  46 CALM      29.73F
EL CENTRO NAS  CLEAR     76  41  28 W3        29.70S
IMPERIAL       CLEAR     73  46  38 SW3       29.68R
BLYTHE         CLEAR     77  44  30 S7        29.70S
NEEDLES        PTCLDY    80  26  13 NW3       29.72S
$$

NVZ020-UTZ003-311200-
SOUTHERN NEVADA-UTAH

CITY           SKY/WX    TMP DP  RH WIND       PRES   REMARKS
LAS VEGAS      PTCLDY    79  31  17 N9        29.80R
SALT LAKE CITY CLEAR     55  41  59 NE3       30.05S
$$

NMZ009-TXZ055-311200-
NEW MEXICO-WEST TEXAS

CITY           SKY/WX    TMP DP  RH WIND       PRES   REMARKS
ALBUQUERQUE    CLOUDY    61  36  39 E3        30.01R
EL PASO        TSTM      65  55  70 S15G23    29.94F
$$


........................KEY........................
SKY/WX - SKY CONDITION/WEATHER
TMP    - TEMPERATURE IN FAHRENHEIT
DP     - DEW POINT IN FAHRENHEIT
RH     - RELATIVE HUMIDITY IN PERCENT
WIND   - DIRECTION AND SPEED IN MILES PER HOUR (MPH)
VRB    - VARIABLE WIND DIRECTION
PRES   - MEAN SEA LEVEL PRESSURE IN INCHES OF MERCURY
         F - FALLING PRESSURE   R - RISING PRESSURE
         S - STEADY PRESSURE
VSB    - VISIBILITY IN MILES
HX     - HEAT INDEX IN FAHRENHEIT
WCI    - WIND CHILL INDEX IN FAHRENHEIT
TC     - TEMPERATURE IN CELSIUS WHICH IS ALSO KNOWN AS
         TEMPERATURE IN CENTIGRADE
AFB    - AIR FORCE BASE
         LUKE AFB IS LUKE AIR FORCE BASE
         DAVIS-MONTHAN IS DAVIS-MONTHAN AIR FORCE BASE
NAS    - NAVAL AIR STATION
         EL CENTRO NAS IS EL CENTRO NAVAL AIR STATION
N/A    - NOT AVAILABLE




USA.gov is the U.S. government's official web portal to all federal, state and local government web resources and services.